Vorticity
18 -29 29 29 14 13 8 9 7 5 9 2 4 6 2 2 4 2 5 6 8 7 6 6 6 5 6 6 6 7 6 7 7 5 5 5 4 3 3 3 2 2 2 2
-4 -42 -45 61 6 -0 17 10 6 7 5 1 5 6 5 1 4 2 6 5 9 7 6 4 6 4 4 4 4 4 5 6 6 5 3 3 3 2 2 2 2 2 2 2
14 -20 47 17 7 2 2 12 6 9 4 5 4 12 6 2 2 0 -1 5 10 8 6 5 4 8 5 3 4 3 4 3 3 3 3 4 4 3 2 2 2 2 3 4
-37 12 12 31 24 5 8 4 9 8 6 3 2 6 3 1 -0 3 5 11 10 6 8 6 3 4 6 5 5 5 5 5 5 4 4 4 4 3 3 4 5 4 5 4
-4 38 5 -20 14 17 7 6 11 8 5 4 3 4 10 3 6 2 10 10 11 8 9 7 7 5 6 6 6 5 5 4 5 5 4 3 4 3 3 4 4 5 4 4
6 11 17 50 26 7 5 9 13 5 6 2 7 6 4 6 -0 5 -9 23 -5 10 13 9 9 7 7 7 7 7 5 5 5 5 5 5 5 5 6 6 6 6 7 8
2 14 15 12 17 18 3 8 7 8 8 11 3 8 5 5 5 1 4 19 5 9 5 12 8 8 7 5 6 7 6 5 6 6 6 6 6 6 6 9 8 8 8 7
-24 -2 24 -1 27 13 4 14 12 4 5 7 8 3 10 -1 4 4 4 3 4 9 14 4 8 9 6 5 5 5 4 5 5 6 7 7 7 7 9 7 7 5 6 6
10 19 19 20 12 18 7 10 14 4 2 -1 9 11 5 7 7 2 0 -1 4 8 6 9 8 14 7 5 6 4 2 3 4 5 5 7 8 9 10 9 7 5 5 4
19 13 22 14 10 24 3 14 18 8 8 4 5 3 13 6 7 4 5 4 -1 7 2 11 3 4 14 7 8 6 4 1 3 4 3 3 4 7 8 9 8 6 4 4
12 10 9 16 18 13 13 6 1 12 18 11 5 7 -1 13 7 5 11 9 1 5 8 6 6 1 7 13 9 5 4 4 3 3 3 3 2 3 4 6 8 9 9 7
13 8 4 10 14 5 5 18 17 16 8 7 24 8 -3 6 8 12 12 9 14 14 0 6 10 9 -5 12 12 9 6 5 6 3 3 2 3 3 2 1 2 2 4 5
9 16 9 7 5 3 5 9 13 16 11 10 13 15 11 1 3 7 1 9 13 9 5 9 7 6 12 -4 9 15 10 8 5 7 7 4 2 2 2 2 2 1 2 3
9 8 24 17 5 7 5 4 5 10 14 13 10 19 14 4 5 8 10 4 6 5 21 5 5 8 6 15 -5 7 13 13 10 9 6 8 8 6 4 4 3 1 2 2
3 6 14 8 20 8 7 7 6 5 3 6 13 13 25 23 15 8 5 5 6 1 6 6 7 20 4 8 5 5 0 13 9 12 8 2 9 9 10 9 7 5 4 4
-1 8 2 8 13 -0 10 12 11 11 11 10 4 3 5 6 8 9 9 14 16 14 11 1 3 4 22 2 4 10 20 -9 14 8 8 13 4 6 7 5 6 10 9 8
9 6 4 4 7 6 4 4 7 4 19 12 9 -0 0 13 3 4 6 1 2 8 10 13 14 10 4 10 11 2 13 11 -6 8 10 6 12 18 7 -2 3 4 4 6
15 5 9 11 8 5 4 5 11 7 7 15 16 7 13 18 24 19 19 16 16 11 8 9 10 11 11 4 12 13 -7 15 9 3 -1 10 4 -0 0 7 10 3 4 5
20 34 27 13 2 5 5 10 19 8 6 6 21 8 -1 2 8 6 -1 2 6 12 13 9 8 9 10 12 11 7 18 -4 5 14 9 3 10 10 10 9 9 10 9 9
9 14 12 36 37 31 12 0 -0 8 10 5 17 12 9 6 9 10 12 12 7 3 5 15 11 9 14 8 7 11 8 7 25 -5 -6 8 6 3 5 4 2 2 2 6
8 6 9 12 15 27 38 48 7 -2 6 0 5 8 7 4 4 8 11 9 7 9 10 16 11 10 8 4 8 10 4 9 17 13 10 8 -1 3 10 8 8 11 7 6
6 6 12 5 8 13 14 17 42 38 16 5 -1 5 8 4 6 9 6 11 15 17 8 3 9 19 18 17 13 9 11 11 7 5 15 28 29 14 -0 -1 2 6 12 15
4 6 5 12 10 8 8 9 4 15 21 33 52 31 -4 14 7 2 2 2 4 5 8 9 12 17 10 15 20 7 3 2 4 4 3 4 -3 3 15 16 18 7 7 7
2 5 7 8 11 7 7 10 10 5 3 10 18 12 37 58 25 -2 2 6 4 3 8 3 13 10 2 4 8 11 20 24 7 -2 1 1 -6 -0 5 2 1 -1 -3 -2
4 5 3 7 12 4 6 10 12 10 7 5 3 4 8 15 11 44 57 34 6 7 12 9 14 7 9 16 19 10 5 9 12 13 20 20 18 16 14 13 12 13 12 8
9 2 4 4 7 6 6 6 9 14 14 10 9 7 7 4 5 9 11 11 24 34 36 26 19 20 -5 -12 -1 12 11 7 15 17 8 9 9 12 10 11 11 8 9 13
Height
5564 5583 5591 5603 5624 5643 5656 5672 5683 5689 5703 5713 5720 5732 5740 5746 5753 5757 5763 5770 5774 5777 5783 5787 5792 5796 5801 5806 5810 5813 5816 5820 5824 5826 5829 5830 5833 5836 5839 5842 5845 5847 5849 5851
5576 5587 5595 5609 5622 5637 5652 5669 5681 5692 5703 5712 5718 5728 5735 5743 5751 5755 5760 5764 5771 5776 5781 5786 5791 5796 5800 5805 5809 5813 5816 5820 5823 5825 5827 5830 5832 5835 5838 5840 5843 5845 5847 5849
5584 5599 5604 5614 5627 5638 5655 5672 5678 5693 5701 5711 5720 5726 5730 5739 5745 5752 5755 5760 5766 5771 5776 5782 5788 5793 5798 5802 5807 5811 5814 5818 5821 5823 5826 5829 5831 5833 5835 5837 5839 5843 5845 5847
5593 5600 5608 5620 5633 5646 5660 5669 5681 5692 5701 5707 5715 5721 5729 5736 5743 5746 5752 5759 5763 5768 5774 5779 5783 5789 5794 5799 5803 5807 5811 5815 5818 5821 5823 5826 5828 5829 5831 5834 5838 5839 5841 5843
5607 5611 5619 5628 5639 5650 5663 5671 5681 5692 5699 5709 5714 5720 5725 5733 5739 5745 5752 5757 5761 5766 5771 5777 5781 5785 5790 5794 5800 5803 5806 5810 5813 5817 5820 5822 5825 5826 5828 5831 5833 5835 5837 5838
5612 5617 5627 5634 5640 5652 5662 5672 5681 5690 5697 5703 5710 5716 5722 5730 5738 5744 5747 5751 5756 5762 5768 5773 5777 5782 5788 5793 5797 5800 5803 5805 5809 5812 5815 5817 5820 5822 5825 5827 5829 5831 5833 5834
5619 5626 5629 5634 5642 5651 5660 5669 5676 5681 5687 5694 5704 5711 5717 5727 5734 5741 5744 5746 5750 5755 5761 5768 5773 5777 5782 5786 5790 5794 5798 5801 5804 5807 5810 5813 5815 5817 5820 5822 5823 5826 5828 5829
5630 5634 5638 5641 5648 5657 5661 5669 5675 5680 5685 5696 5704 5705 5714 5722 5730 5736 5741 5744 5748 5754 5759 5762 5765 5769 5775 5779 5784 5787 5791 5793 5795 5799 5803 5806 5809 5811 5814 5816 5817 5819 5821 5823
5636 5636 5637 5643 5651 5658 5663 5671 5680 5686 5691 5694 5697 5702 5711 5718 5726 5732 5738 5741 5746 5750 5755 5759 5762 5766 5770 5774 5778 5782 5786 5789 5791 5794 5797 5800 5803 5805 5808 5810 5811 5813 5815 5816
5637 5640 5644 5645 5650 5658 5665 5671 5675 5680 5684 5689 5696 5700 5710 5716 5721 5727 5733 5737 5741 5745 5750 5753 5757 5760 5764 5767 5772 5776 5780 5783 5786 5789 5792 5794 5796 5799 5801 5803 5805 5806 5807 5809
5639 5643 5647 5650 5653 5657 5662 5667 5673 5678 5682 5688 5693 5697 5710 5714 5718 5723 5728 5732 5737 5741 5744 5748 5751 5755 5758 5762 5765 5768 5772 5775 5779 5783 5787 5789 5791 5794 5795 5797 5798 5799 5801 5802
5639 5641 5642 5648 5651 5654 5659 5665 5669 5673 5680 5684 5690 5695 5704 5708 5713 5717 5722 5727 5730 5735 5739 5741 5745 5747 5751 5754 5757 5761 5764 5768 5771 5775 5779 5782 5785 5786 5789 5790 5792 5793 5795 5796
5639 5640 5640 5642 5646 5649 5653 5658 5664 5667 5671 5676 5683 5689 5697 5702 5706 5710 5713 5717 5721 5725 5729 5734 5737 5740 5742 5746 5748 5751 5755 5759 5762 5766 5769 5772 5774 5777 5779 5781 5783 5785 5786 5787
5637 5638 5640 5643 5646 5648 5650 5653 5655 5659 5663 5670 5676 5682 5687 5692 5696 5700 5704 5708 5712 5715 5719 5723 5727 5730 5734 5736 5739 5741 5744 5747 5751 5754 5757 5760 5763 5765 5768 5770 5771 5773 5775 5776
5635 5636 5638 5638 5639 5643 5646 5649 5652 5655 5657 5660 5670 5671 5677 5682 5686 5689 5693 5697 5701 5705 5708 5711 5715 5719 5722 5725 5728 5730 5733 5735 5738 5741 5745 5747 5750 5752 5755 5757 5759 5761 5762 5764
5631 5633 5633 5634 5636 5637 5637 5640 5643 5645 5649 5654 5659 5663 5668 5672 5675 5678 5680 5685 5688 5692 5696 5699 5703 5706 5709 5713 5716 5718 5721 5724 5725 5727 5730 5733 5736 5738 5740 5742 5745 5747 5749 5750
5624 5625 5627 5627 5628 5629 5632 5636 5636 5638 5641 5644 5646 5657 5656 5658 5661 5665 5669 5673 5677 5680 5683 5686 5689 5691 5695 5699 5702 5705 5707 5709 5712 5714 5716 5719 5721 5723 5726 5728 5730 5732 5733 5735
5616 5617 5617 5619 5619 5615 5624 5625 5628 5631 5632 5634 5639 5642 5644 5645 5648 5652 5655 5659 5662 5665 5667 5670 5674 5677 5680 5682 5686 5689 5692 5694 5697 5699 5702 5704 5706 5708 5710 5712 5714 5716 5718 5719
5610 5608 5608 5608 5609 5610 5613 5618 5619 5619 5626 5629 5632 5634 5636 5636 5638 5640 5643 5645 5647 5649 5652 5654 5657 5662 5664 5667 5670 5673 5676 5679 5680 5683 5685 5688 5690 5692 5693 5695 5697 5699 5701 5703
5604 5603 5602 5600 5600 5598 5607 5606 5608 5609 5612 5617 5618 5620 5621 5624 5627 5632 5632 5633 5634 5636 5638 5639 5642 5645 5648 5651 5654 5656 5659 5661 5664 5666 5668 5670 5672 5674 5676 5678 5679 5681 5683 5685
5597 5596 5595 5593 5593 5593 5590 5591 5593 5594 5608 5604 5604 5605 5606 5611 5615 5617 5619 5621 5623 5624 5626 5628 5629 5631 5634 5636 5638 5641 5642 5644 5646 5648 5650 5652 5654 5656 5658 5659 5661 5662 5664 5665
5590 5588 5587 5585 5585 5586 5585 5583 5583 5586 5587 5590 5592 5594 5595 5597 5600 5603 5606 5608 5610 5612 5613 5615 5617 5618 5619 5620 5622 5624 5626 5627 5628 5630 5631 5633 5635 5637 5639 5641 5642 5643 5645 5646
5580 5581 5580 5580 5578 5576 5577 5578 5576 5573 5575 5576 5576 5577 5580 5584 5586 5588 5590 5593 5595 5596 5598 5599 5601 5603 5605 5605 5607 5608 5609 5610 5611 5612 5613 5614 5616 5618 5619 5621 5622 5623 5624 5626
5571 5569 5571 5570 5571 5567 5567 5567 5568 5569 5567 5566 5566 5567 5566 5566 5569 5572 5574 5576 5578 5579 5581 5582 5583 5585 5587 5588 5590 5591 5592 5593 5594 5594 5595 5596 5597 5597 5598 5599 5600 5602 5602 5604
5562 5559 5558 5562 5560 5556 5556 5557 5556 5557 5558 5558 5558 5557 5557 5557 5557 5556 5557 5559 5561 5563 5565 5566 5566 5567 5568 5569 5570 5571 5572 5573 5573 5574 5575 5576 5576 5577 5577 5577 5579 5580 5580 5582
5550 5544 5545 5549 5549 5547 5547 5545 5545 5546 5546 5547 5547 5547 5547 5547 5547 5547 5547 5546 5546 5547 5547 5548 5549 5550 5550 5551 5553 5553 5553 5553 5553 5553 5554 5554 5554 5554 5555 5556 5556 5556 5557 5558